COSMOS 2251 DEB

Satellite information

Favourite Embed

Satellite Type and Status

DEBRISIN ORBIT

Key statistics

Satellite COSMOS 2251 DEB at a glance.

Uptime

11707

Days in orbit

Revolutions

≈ 14.6

Per day

Orbit

LEO

Low Earth Orbit

Inclination

73.9

Latest

Satellite identification and parameters

Extended collection of information and parameters for COSMOS 2251 DEB.

Object identification

Identified? True

Debris? True

Object name: COSMOS 2251 DEB

International designator: 1993-036AVW

Object number (NORAD): 35980

Object ID (CCSDS): 35980

Country: COMMONWEALTH OF INDEPENDENT STATES (CIS)

Current information (Y/N): Y

RCS size: SMALL

Orbital parameters

Period: 98.853 minutes

Inclination: 73.9131 deg

SMA: 7081.938 km

Apoapsis: 744.789 km

Periapsis: 662.817 km

RAAN: 81.2589 deg

Eccentricy: 0.0057874

Argument of periapsis: 249.1788 deg

Mean anomaly: 110.317 deg

Mean motion: 14.56715084 rev/day

Mean motion (dot): 0.00002227 rev/day2

B* drag term: 0.00049395 1/REarth

Two-line elements (TLE)

Creation date: June 29, 2025, 5:39 p.m.

Reference frame: TEME

Reference center: EARTH

Epoch: June 29, 2025, 11:03 a.m. UTC

TLE line 0: 0 COSMOS 2251 DEB

TLE line 1: 1 35980U 93036AVW 25180.46110236 .00002227 00000-0 49395-3 0 9991

TLE line 2: 2 35980 73.9131 81.2589 0057874 249.1788 110.3170 14.56715084590631

Live tracking on map

Real-time ground track for satellite COSMOS 2251 DEB.

In-orbit conjunctions

A list of the most updated potential collisions computed for object COSMOS 2251 DEB.

Target Orbit TCA Probability of collision Miss distance Type
FENGYUN 1C DEB SSO 2025-06-25 17:45:54 0.000164466 129.0 (m) DEBRIS
CZ-6A DEB LEO 2024-11-07 23:41:56 0.0001366622 778.0 (m) DEBRIS
COSMOS 2251 DEB LEO 2024-09-26 05:57:31 0.0001970919 580.0 (m) DEBRIS
COSMOS 2251 DEB LEO 2024-09-24 21:23:58 0.0003892679 180.0 (m) DEBRIS

Associated space launch

Military communications satellite. Destroyed in a collision with Iridium 33.

COSMOS 2251 DEB was lifted into orbit during the mission ‘Kosmos-3M | Strela-2M 51’, on board a Kosmos-3M space rocket.

The launch took place on June 16, 1993, 4:17 a.m. from 132/1 (132L).

For more information about the launch, click the button.

Launch to space Kosmos-3M | Strela-2M 51
Kosmos-3M | Strela-2M 51

Agency: N/A

Status: Launch Successful

Launch date: June 16, 1993, 4:17 a.m. UTC

Rocket: Kosmos-3M

Launch pad: 132/1 (132L)

Location: Plesetsk Cosmodrome, Russian Federation

...

Latest news about this satellite

There are no fresh news available about this satellite. Check back as we update our databases every day.


Newsletter sign-up

Weekly statistics, charts and insights to help you stay on top of the space industry.